CAPE
nan nan nan nan nan nan nan nan nan nan nan nan nan nan nan nan nan nan nan nan nan nan nan nan nan nan nan 2 4 4 4 4 4 4 4 5 4 4 4 4 4 4 4 4 4 5 6 6 6 7 7 5 2 2 nan nan nan nan nan nan nan nan nan nan nan nan nan nan nan nan nan nan nan nan nan nan nan nan nan 0 0 1 2 4 4 11
nan nan nan nan nan nan nan nan nan nan nan nan nan nan nan nan nan nan nan nan nan nan nan nan nan nan nan 2 4 4 5 5 5 5 5 5 5 5 5 5 5 5 6 7 7 7 6 7 7 7 5 3 0 0 nan nan nan nan nan nan nan nan nan nan nan nan nan nan nan nan nan nan nan nan nan nan nan nan 0 2 2 3 4 9 9 16
nan nan nan nan nan nan nan nan nan nan nan nan nan nan nan nan nan nan nan nan nan nan nan nan nan nan nan 1 5 5 5 6 6 6 6 6 6 6 6 6 6 7 7 8 8 8 8 7 7 6 3 0 nan nan nan nan nan nan nan nan nan nan nan nan nan nan nan nan nan nan nan nan nan nan nan nan 0 0 2 3 3 5 7 14 14 19
nan nan nan nan nan nan nan nan nan nan nan nan nan nan nan nan nan nan nan nan nan nan nan nan nan nan nan nan 5 5 5 6 6 6 6 6 6 6 6 6 6 7 7 8 8 8 8 6 6 3 0 nan nan nan nan nan nan nan nan nan nan nan nan nan nan nan nan nan nan nan nan nan nan nan nan 0 1 1 2 5 5 8 13 16 16 20
nan nan nan nan nan 0 nan nan nan nan nan nan nan nan nan nan nan nan nan nan nan nan nan nan nan nan nan nan 4 4 6 6 7 7 6 6 6 6 6 7 7 6 7 7 7 8 6 3 3 0 nan nan nan nan nan nan nan nan nan nan nan nan nan nan nan nan nan nan nan nan nan nan nan nan 0 0 2 2 5 8 8 10 13 17 17 21
nan nan nan nan nan nan nan nan nan nan nan nan nan nan nan nan nan nan nan nan nan nan nan nan nan nan nan nan 4 4 7 7 7 7 7 8 7 7 7 6 6 7 8 8 8 8 5 2 2 0 nan nan nan nan nan nan nan nan nan nan nan nan nan nan nan nan nan nan nan nan nan nan nan nan 0 1 3 3 6 9 9 12 14 17 17 22
nan nan nan nan nan nan nan nan nan nan nan nan nan nan nan nan nan nan nan nan nan nan nan nan nan nan nan 1 6 6 7 8 7 7 8 8 8 8 7 8 8 8 10 10 10 9 5 1 1 nan nan nan nan nan nan nan nan nan nan nan nan nan nan nan nan nan nan nan nan nan nan nan 0 0 0 1 4 4 7 9 9 11 13 18 18 23
nan nan nan nan nan nan nan nan nan nan nan nan nan nan nan nan nan nan nan nan nan nan nan nan nan nan nan nan nan nan nan nan nan nan 0 5 9 9 6 5 5 6 6 6 6 5 4 3 3 1 nan nan nan nan nan nan nan nan nan nan nan nan nan nan nan nan nan nan nan nan nan 0 1 1 2 3 4 4 5 8 8 11 13 16 16 19
nan nan nan nan nan nan nan nan nan nan nan nan nan nan nan nan nan nan nan nan nan nan nan nan nan nan nan nan nan nan 1 0 nan nan nan nan nan nan 7 8 8 6 6 6 6 5 4 2 2 1 0 nan nan nan nan nan nan nan nan nan nan nan nan nan nan nan nan nan nan nan nan 1 2 2 3 3 3 3 4 7 7 12 14 15 15 19
nan nan nan nan nan nan nan nan nan nan nan nan nan nan nan nan nan nan nan 0 0 nan nan nan nan 0 0 nan 0 0 2 6 11 11 10 1 7 7 2 1 1 4 6 7 7 5 4 2 2 1 1 0 nan nan nan nan nan nan nan nan nan nan nan nan nan nan nan nan nan nan 0 1 2 2 3 3 3 3 4 6 6 9 13 16 16 18
nan nan nan nan nan nan nan nan nan nan nan nan nan nan nan nan nan nan nan 0 0 0 0 0 0 1 1 0 nan nan 0 nan nan nan 1 1 2 2 1 nan nan 1 4 6 6 5 2 1 1 1 0 nan nan nan nan nan nan nan nan nan nan nan nan nan nan nan nan nan nan nan 0 1 2 2 2 3 4 4 5 6 6 8 10 14 14 16
nan nan nan nan nan nan nan nan nan nan nan nan nan nan nan nan nan nan nan 0 0 0 0 0 0 0 1 1 0 0 nan 0 nan nan nan nan nan nan nan nan nan 1 0 7 7 2 0 nan nan nan nan nan nan nan nan nan nan nan nan nan nan nan nan nan nan nan nan nan nan nan 0 1 2 2 2 3 4 4 5 6 6 7 8 10 10 13
nan nan nan nan nan nan nan nan nan nan nan nan nan nan nan nan nan nan nan nan nan 0 0 0 0 0 nan nan nan nan nan nan nan nan nan nan 0 0 nan nan nan nan nan nan nan nan nan nan nan nan nan nan nan nan nan nan nan nan nan nan nan nan nan nan nan nan nan nan 0 0 0 1 2 2 2 3 4 4 5 6 6 7 7 9 9 11
nan nan nan nan nan nan nan nan nan nan nan nan nan nan nan nan nan nan nan nan nan nan nan 0 0 0 0 0 nan nan nan nan nan nan nan 0 nan nan nan nan nan nan nan nan nan nan nan nan nan nan nan nan nan nan nan nan nan nan nan nan nan nan nan nan nan nan nan nan 0 0 0 1 1 1 2 4 5 5 5 6 6 7 8 8 8 10
nan nan nan nan nan nan nan nan nan nan nan nan nan nan nan nan nan nan nan nan nan nan nan 0 0 0 0 0 0 0 nan nan nan nan nan 0 nan nan nan nan nan nan nan nan nan nan nan nan nan nan nan nan nan nan nan nan nan nan nan nan nan nan nan nan nan nan nan nan 0 0 0 1 2 2 3 4 5 5 5 5 5 6 7 8 8 9
nan nan nan nan nan nan nan nan nan nan nan nan nan nan nan nan nan nan nan nan nan nan nan nan nan nan 1 0 0 0 nan nan nan nan nan nan nan nan nan nan nan nan nan nan nan nan nan nan nan nan nan nan nan nan nan nan nan nan nan nan nan nan nan nan nan nan nan nan 0 0 0 1 2 2 3 5 5 5 6 6 6 6 6 8 8 8
nan nan nan nan nan nan nan nan nan nan nan nan nan nan nan nan nan nan nan nan nan nan nan nan nan nan 0 1 nan nan nan nan nan nan nan nan nan nan nan nan nan nan nan nan nan nan nan nan nan nan nan nan nan nan nan nan nan nan nan nan nan nan nan nan nan nan nan nan 0 0 1 1 3 3 4 5 5 5 5 5 5 5 6 7 7 7
nan nan nan nan nan nan nan nan nan nan nan nan nan nan nan nan nan nan nan nan nan nan nan nan nan nan nan nan nan nan nan nan nan nan nan nan nan nan nan nan nan nan nan nan nan nan nan nan nan nan nan nan nan nan nan nan nan nan nan nan nan nan nan nan nan nan nan nan 0 0 1 2 3 3 4 4 5 5 5 5 5 6 6 6 6 6
nan nan nan nan nan nan nan nan nan nan nan nan nan nan nan nan nan nan nan nan nan nan nan nan nan nan nan 0 nan nan nan nan nan nan nan nan nan nan nan nan nan nan nan nan nan nan nan nan nan nan nan nan nan nan nan nan nan nan nan nan nan nan nan nan nan nan nan 0 1 1 2 3 4 4 4 4 4 4 4 5 5 5 6 6 6 7
nan nan nan nan nan nan nan nan nan nan nan nan nan nan nan nan nan nan nan nan nan nan nan nan nan nan nan nan nan nan nan nan nan nan nan nan nan nan nan nan nan nan nan nan nan nan nan nan nan nan nan nan nan nan nan nan nan nan nan nan nan nan nan nan nan nan 0 1 2 2 3 3 4 4 4 4 4 4 4 5 5 5 6 6 6 7
nan nan nan nan nan nan nan nan nan nan nan nan nan nan nan nan nan nan nan nan nan nan nan nan nan nan nan nan nan nan nan nan nan nan nan nan nan nan nan nan nan nan nan nan nan nan nan nan nan nan nan nan nan nan nan nan nan nan nan nan nan nan nan nan nan 0 1 2 2 2 3 3 3 3 3 3 4 4 4 5 5 5 6 6 6 8
nan nan nan nan nan nan nan nan nan nan nan nan nan nan nan nan nan nan nan nan nan nan nan nan nan nan nan nan nan nan nan nan nan nan nan nan nan nan nan nan nan nan nan nan nan nan nan nan nan nan nan nan nan nan nan nan nan nan nan nan nan nan nan 0 0 0 1 2 2 2 3 3 3 3 3 3 3 3 4 5 5 5 6 7 7 7
nan nan nan nan nan nan nan nan nan nan nan nan nan nan nan nan nan nan nan nan nan nan nan nan nan nan nan nan nan nan nan nan nan nan nan nan nan nan nan nan nan nan nan nan nan nan nan nan nan nan nan nan nan nan nan nan nan nan nan nan nan nan nan 0 0 0 1 1 2 2 2 2 3 3 3 3 4 4 4 5 5 6 6 7 7 7
nan nan nan nan nan nan nan nan nan nan nan nan nan nan nan nan nan nan nan nan nan nan nan nan nan nan nan nan nan nan nan nan nan nan nan nan nan nan nan nan nan nan nan nan nan nan nan nan nan nan nan nan nan nan nan nan nan nan nan nan nan nan nan nan nan 0 0 1 1 1 2 2 2 2 3 3 3 3 4 5 5 6 6 6 6 6
nan nan nan nan nan nan nan nan nan nan nan nan nan nan nan nan nan nan nan nan nan nan nan nan nan nan nan nan nan nan nan nan nan nan nan nan nan nan nan nan nan nan nan nan nan nan nan nan nan nan nan nan nan nan nan nan nan nan nan nan nan nan nan nan nan nan 0 0 1 1 1 2 2 2 3 3 3 3 5 5 5 6 6 5 5 5
nan nan nan nan nan nan nan nan nan nan nan nan nan nan nan nan nan nan nan nan nan nan nan nan nan nan nan nan nan nan nan nan nan nan nan nan nan nan nan nan nan nan nan nan nan nan nan nan nan nan nan nan nan nan nan nan nan nan nan nan nan nan nan nan nan nan nan nan 0 0 0 1 1 1 2 3 4 4 4 5 5 4 5 5 5 4
0 1 1 1 1 1 2 2 1 1 nan nan nan nan nan nan nan nan nan nan nan nan nan nan nan nan nan nan nan nan nan nan nan nan nan nan nan nan nan nan nan nan nan nan nan nan nan nan nan nan nan nan nan nan nan nan nan nan nan nan nan nan nan nan nan nan nan nan nan nan 0 1 1 1 2 3 3 3 4 4 4 3 3 4 4 2
1 2 3 3 3 3 3 2 1 1 nan nan nan nan nan nan nan nan nan nan nan nan nan nan nan nan nan nan nan nan nan nan nan nan nan nan nan nan nan nan nan nan nan nan nan nan nan nan nan nan nan nan nan nan nan nan nan nan nan nan nan nan nan nan nan nan nan nan 0 0 0 1 2 2 2 2 3 3 2 2 2 2 2 nan nan nan
2 2 2 2 2 3 3 3 2 2 0 nan nan nan nan nan nan nan nan nan nan nan nan nan nan nan nan nan nan nan nan nan nan nan nan nan nan nan nan nan nan nan nan nan nan nan nan nan nan nan nan nan nan nan nan nan nan nan nan nan nan nan nan nan nan nan nan nan 0 0 0 2 2 2 3 3 2 2 1 1 1 1 nan nan nan nan
nan 5 3 4 4 5 3 1 2 2 2 1 nan nan nan nan nan nan nan nan nan nan nan nan nan nan nan nan nan nan nan nan nan nan nan nan nan nan nan nan nan nan nan nan nan nan nan nan nan nan nan nan nan nan nan nan nan nan nan nan nan nan nan nan nan nan nan nan 0 0 0 2 2 2 2 2 1 1 1 0 0 nan nan nan nan nan
nan nan nan nan nan nan nan nan nan nan 2 0 nan nan nan nan nan nan nan nan nan nan nan nan nan nan nan nan nan nan nan nan nan nan nan nan nan nan nan nan nan nan nan nan nan nan nan nan nan nan nan nan nan nan nan nan nan nan nan nan nan nan nan nan nan nan nan nan nan nan 0 1 1 1 1 1 0 0 0 0 0 nan nan nan nan nan
nan nan nan nan nan nan nan nan nan nan nan nan nan nan nan nan nan nan nan nan nan nan nan nan nan nan nan nan nan nan nan nan nan nan nan nan nan nan nan nan nan nan nan nan nan nan nan nan nan nan nan nan nan nan nan nan nan nan nan nan nan nan nan nan nan nan nan nan nan nan nan nan nan nan nan nan nan nan nan 0 0 1 nan nan nan nan
nan nan nan nan nan nan nan nan nan nan nan nan nan nan nan nan nan nan nan nan nan nan nan nan nan nan nan nan nan nan nan nan nan nan nan nan nan nan nan nan nan nan nan nan nan nan nan nan nan nan nan nan nan nan nan nan nan nan nan nan nan nan nan nan nan nan nan nan nan nan nan nan nan nan nan nan nan nan nan 1 1 3 1 nan nan nan
nan nan nan nan nan nan nan nan nan nan nan nan nan nan nan nan nan nan nan nan nan nan nan nan nan nan nan nan nan nan nan nan nan nan nan nan nan nan nan nan nan nan nan nan nan nan nan nan nan nan nan nan nan nan nan nan nan nan nan nan nan nan nan nan nan nan nan nan nan nan nan nan nan nan nan nan nan nan 0 2 2 3 4 nan nan nan
nan nan nan nan nan nan nan nan nan nan nan nan nan nan nan nan nan nan nan nan nan nan nan nan nan nan nan nan nan nan nan nan nan nan nan nan nan nan nan nan nan nan nan nan nan nan nan nan nan nan nan nan nan nan nan nan nan nan nan nan nan nan nan nan nan nan nan nan nan nan nan nan nan nan nan nan nan nan 1 2 2 2 2 2 2 nan
nan nan nan nan nan nan nan nan nan nan nan nan nan nan nan nan nan nan nan nan nan nan nan nan nan nan nan nan nan nan nan nan nan nan nan nan nan nan nan nan nan nan nan nan nan nan nan nan nan nan nan nan nan nan nan nan nan nan nan nan nan nan nan nan nan nan nan nan nan nan nan nan nan nan nan nan nan nan nan nan nan 1 1 1 1 1
nan nan nan nan nan nan nan nan nan nan nan nan nan nan nan nan nan nan nan nan nan nan nan nan nan nan nan nan nan nan nan nan nan nan nan nan nan nan nan nan nan nan nan nan nan nan nan nan nan nan nan nan nan nan nan nan nan nan nan nan nan nan nan nan nan nan nan nan nan nan nan nan nan nan nan nan nan nan nan nan nan nan 0 1 1 1
nan nan nan nan nan nan nan nan nan nan nan nan nan nan nan nan nan nan nan nan nan nan nan nan nan nan nan nan nan nan nan nan nan nan nan nan nan nan nan nan nan nan nan nan nan nan nan nan nan nan nan nan nan nan nan nan nan nan nan nan nan nan nan nan nan nan nan nan nan nan nan nan nan nan nan nan nan nan nan nan nan nan nan nan nan 1
nan nan nan nan nan nan nan nan nan nan nan nan nan nan nan nan nan nan nan nan nan nan nan nan nan nan nan nan nan nan nan nan nan nan nan nan nan nan nan nan nan nan nan nan nan nan nan nan nan nan nan nan nan nan nan nan nan nan nan nan nan nan nan nan nan nan nan nan nan nan nan nan nan nan nan nan nan nan nan nan nan nan nan nan nan nan
nan nan nan nan nan nan nan nan nan nan nan nan nan nan nan nan nan nan nan nan nan nan nan nan nan nan nan nan nan nan nan nan nan nan nan nan nan nan nan nan nan nan nan nan nan nan nan nan nan nan nan nan nan nan nan nan nan nan 0 nan nan nan nan nan nan nan nan nan nan nan nan nan nan nan nan nan nan nan nan nan nan nan nan nan nan nan
nan nan nan nan nan nan nan nan nan nan nan nan nan nan nan nan nan nan nan nan nan nan nan nan nan nan nan nan nan nan nan nan nan nan nan nan nan nan nan nan nan nan nan nan nan nan nan nan nan nan nan nan nan nan nan nan nan 0 1 nan nan nan nan nan nan nan nan nan nan nan nan nan nan nan nan nan nan nan nan nan nan nan nan nan nan nan
nan nan nan nan nan nan nan nan nan nan nan nan nan nan nan nan nan nan nan nan nan nan nan nan nan nan nan nan nan nan nan nan nan nan nan nan nan nan nan nan nan nan nan nan nan nan nan nan nan nan nan nan nan nan nan nan nan nan nan nan nan nan 0 nan nan nan nan nan nan nan nan nan nan nan nan nan nan nan nan nan nan nan nan nan nan nan
nan nan nan nan nan nan nan nan nan nan nan nan nan nan nan nan nan nan nan nan nan nan nan nan nan nan nan nan nan nan nan nan nan nan nan nan nan nan nan nan nan nan nan nan nan nan nan nan nan nan nan nan nan nan nan nan nan nan nan nan nan nan nan nan nan nan nan nan nan nan nan nan nan nan nan nan nan nan nan nan nan nan nan nan nan nan
nan nan nan nan nan nan nan nan nan nan nan nan nan nan nan nan nan nan nan nan nan nan nan nan nan nan nan nan nan nan nan nan nan nan nan nan nan nan nan nan nan nan nan nan nan nan nan nan nan nan nan nan nan nan nan nan nan nan nan nan nan nan nan nan nan nan nan nan nan nan nan nan nan nan nan nan nan nan nan nan nan nan nan nan nan nan
nan nan nan nan nan nan nan nan nan nan nan nan nan nan nan nan nan nan nan nan nan nan nan nan nan nan nan nan nan nan nan nan nan nan nan nan 0 0 nan nan nan nan nan nan nan nan nan nan nan nan nan nan nan nan nan nan nan nan nan nan nan nan nan nan nan nan nan nan nan nan nan nan nan nan nan nan nan nan nan nan nan nan nan nan nan nan
nan nan nan nan nan nan nan nan nan nan nan nan nan nan nan nan nan nan nan nan nan nan nan nan nan nan nan nan nan nan nan nan nan nan nan nan nan nan nan nan nan nan nan nan nan nan nan nan nan nan nan nan nan nan nan nan nan nan nan nan nan nan nan nan nan nan nan nan nan nan nan nan nan nan nan nan nan nan nan nan nan nan nan nan nan nan
nan nan nan nan nan nan nan nan nan nan nan nan nan nan nan nan nan nan nan nan nan nan nan nan nan nan nan nan nan nan nan nan nan nan nan nan nan nan nan nan nan nan nan nan nan nan nan nan nan nan nan nan nan nan nan nan nan nan nan nan nan nan nan nan nan nan nan nan nan nan nan nan nan nan nan nan nan nan nan nan nan nan nan nan nan nan
nan nan nan nan nan nan nan nan nan nan nan nan nan nan nan nan nan nan nan nan nan nan nan nan nan nan nan nan nan nan nan nan nan nan nan nan nan nan nan nan nan nan nan nan nan nan nan nan nan nan nan nan nan nan nan nan nan nan nan nan nan nan nan nan nan nan nan nan nan nan nan nan nan nan nan nan nan nan nan nan nan nan nan nan nan nan
nan nan nan nan nan nan nan nan nan nan nan nan nan nan nan nan nan nan nan nan nan nan nan nan nan nan nan nan nan nan nan nan nan nan nan nan nan nan nan nan nan nan nan nan nan nan nan nan nan nan nan nan nan nan nan nan nan nan nan nan nan nan nan nan nan nan nan nan nan nan nan nan nan nan nan nan nan nan nan nan nan nan nan nan nan nan
nan nan nan nan nan nan nan nan nan nan nan nan nan nan nan nan nan nan nan nan nan nan nan nan nan nan nan nan nan nan nan nan nan nan nan nan nan nan nan nan nan nan nan nan nan nan nan nan nan nan nan nan nan nan nan nan nan nan nan nan nan nan nan nan nan nan nan nan nan nan nan nan nan nan nan nan nan nan nan nan nan nan nan nan nan nan
nan nan nan nan nan nan nan nan nan nan nan nan nan nan nan nan nan nan nan nan nan nan nan nan nan nan nan nan nan nan nan nan nan nan nan nan nan nan nan nan nan nan nan nan nan nan nan nan nan nan nan nan nan nan nan nan nan nan nan nan nan nan nan nan nan nan nan nan nan nan nan nan nan nan nan nan nan nan nan nan nan nan nan nan nan nan
CIN
nan nan nan nan nan nan nan nan nan nan nan nan nan nan nan nan nan nan nan nan nan nan nan nan nan nan nan -0 -0 -0 -0 -0 -0 -0 -0 -0 -0 -0 -0 -0 -0 -0 -0 -0 -0 -0 -0 -0 -0 -0 -0 -0 -0 -0 nan nan nan nan nan nan nan nan nan nan nan nan nan nan nan nan nan nan nan nan nan nan nan nan nan -0 -0 -0 -0 -0 -0 -0
nan nan nan nan nan nan nan nan nan nan nan nan nan nan nan nan nan nan nan nan nan nan nan nan nan nan nan -0 -0 -0 -0 -0 -0 -0 -0 -0 -0 -0 -0 -0 -0 -0 -0 -0 -0 -0 -0 -0 -0 -0 -0 -0 -0 -0 nan nan nan nan nan nan nan nan nan nan nan nan nan nan nan nan nan nan nan nan nan nan nan nan -0 -0 -0 -0 -0 -0 -0 -0
nan nan nan nan nan nan nan nan nan nan nan nan nan nan nan nan nan nan nan nan nan nan nan nan nan nan nan -0 -0 -0 -0 -0 -0 -0 -0 -0 -0 -0 -0 -0 -0 -0 -0 -0 -0 -0 -0 -0 -0 -0 -0 -0 nan nan nan nan nan nan nan nan nan nan nan nan nan nan nan nan nan nan nan nan nan nan nan nan -0 -0 -0 -0 -0 -0 -0 -0 -0 -0
nan nan nan nan nan nan nan nan nan nan nan nan nan nan nan nan nan nan nan nan nan nan nan nan nan nan nan nan -0 -0 -0 -0 -0 -0 -0 -0 -0 -0 -0 -0 -0 -0 -0 -0 -0 -0 -0 -0 -0 -0 -0 nan nan nan nan nan nan nan nan nan nan nan nan nan nan nan nan nan nan nan nan nan nan nan nan -0 -0 -0 -0 -0 -0 -0 -0 -0 -0 -0
nan nan nan nan nan -0 nan nan nan nan nan nan nan nan nan nan nan nan nan nan nan nan nan nan nan nan nan nan -0 -0 -0 -0 -0 -0 -0 -0 -0 -0 -0 -0 -0 -0 -0 -0 -0 -0 -0 -0 -0 -0 nan nan nan nan nan nan nan nan nan nan nan nan nan nan nan nan nan nan nan nan nan nan nan nan -0 -0 -0 -0 -0 -0 -0 -0 -0 -0 -0 -0
nan nan nan nan nan nan nan nan nan nan nan nan nan nan nan nan nan nan nan nan nan nan nan nan nan nan nan nan -0 -0 -0 -0 -0 -0 -0 -0 -0 -0 -0 -0 -0 -0 -0 -0 -0 -0 -0 -0 -0 -0 nan nan nan nan nan nan nan nan nan nan nan nan nan nan nan nan nan nan nan nan nan nan nan nan -0 -0 -0 -0 -0 -0 -0 -0 -0 -0 -0 -0
nan nan nan nan nan nan nan nan nan nan nan nan nan nan nan nan nan nan nan nan nan nan nan nan nan nan nan -0 -0 -0 -0 -0 -0 -0 -0 -0 -0 -0 -0 -0 -0 -0 -0 -0 -0 -0 -0 -0 -0 nan nan nan nan nan nan nan nan nan nan nan nan nan nan nan nan nan nan nan nan nan nan nan -0 -0 -0 -0 -0 -0 -0 -0 -0 -0 -0 -0 -0 -0
nan nan nan nan nan nan nan nan nan nan nan nan nan nan nan nan nan nan nan nan nan nan nan nan nan nan nan nan nan nan nan nan nan nan -1 -0 -0 -0 -0 -0 -0 -0 -0 -0 -0 -0 -0 -0 -0 -0 nan nan nan nan nan nan nan nan nan nan nan nan nan nan nan nan nan nan nan nan nan -0 -0 -0 -0 -0 -0 -0 -0 -0 -0 -0 -0 -0 -0 -0
nan nan nan nan nan nan nan nan nan nan nan nan nan nan nan nan nan nan nan nan nan nan nan nan nan nan nan nan nan nan -0 -0 nan nan nan nan nan nan -0 -0 -0 -0 -0 -0 -0 -0 -0 -0 -0 -0 -0 nan nan nan nan nan nan nan nan nan nan nan nan nan nan nan nan nan nan nan nan -0 -0 -0 -0 -0 -0 -0 -0 -0 -0 -0 -0 -0 -0 -0
nan nan nan nan nan nan nan nan nan nan nan nan nan nan nan nan nan nan nan -0 -0 nan nan nan nan -0 -0 nan -2 -2 -0 -0 -0 -0 -0 -0 -0 -0 -0 -1 -1 -0 -0 -0 -0 -0 -0 -0 -0 -0 -0 -0 nan nan nan nan nan nan nan nan nan nan nan nan nan nan nan nan nan nan -0 -0 -0 -0 -0 -0 -0 -0 -0 -0 -0 -0 -0 -0 -0 -0
nan nan nan nan nan nan nan nan nan nan nan nan nan nan nan nan nan nan nan -0 -0 -0 -0 -0 -0 -0 -0 -0 nan nan -0 nan nan nan -0 -1 -0 -0 -0 nan nan -0 -0 -0 -0 -0 -0 -0 -0 -0 -0 nan nan nan nan nan nan nan nan nan nan nan nan nan nan nan nan nan nan nan -0 -0 -0 -0 -0 -0 -0 -0 -0 -0 -0 -0 -0 -0 -0 -0
nan nan nan nan nan nan nan nan nan nan nan nan nan nan nan nan nan nan nan -0 -0 -0 -0 -0 -0 -0 -0 -0 -0 -0 nan -0 nan nan nan nan nan nan nan nan nan -2 -6 -0 -0 -0 -0 nan nan nan nan nan nan nan nan nan nan nan nan nan nan nan nan nan nan nan nan nan nan nan -0 -0 -0 -0 -0 -0 -0 -0 -0 -0 -0 -0 -0 -0 -0 -0
nan nan nan nan nan nan nan nan nan nan nan nan nan nan nan nan nan nan nan nan nan -0 -0 -0 -0 -0 nan nan nan nan nan nan nan nan nan nan -0 -0 nan nan nan nan nan nan nan nan nan nan nan nan nan nan nan nan nan nan nan nan nan nan nan nan nan nan nan nan nan nan -0 -0 -0 -0 -0 -0 -0 -0 -0 -0 -0 -0 -0 -0 -0 -0 -0 -0
nan nan nan nan nan nan nan nan nan nan nan nan nan nan nan nan nan nan nan nan nan nan nan -0 -0 -0 -0 -0 nan nan nan nan nan nan nan -0 nan nan nan nan nan nan nan nan nan nan nan nan nan nan nan nan nan nan nan nan nan nan nan nan nan nan nan nan nan nan nan nan -0 -0 -0 -0 -0 -0 -0 -0 -0 -0 -0 -0 -0 -0 -0 -0 -0 -0
nan nan nan nan nan nan nan nan nan nan nan nan nan nan nan nan nan nan nan nan nan nan nan -0 -0 -0 -0 -0 -0 -0 nan nan nan nan nan -0 nan nan nan nan nan nan nan nan nan nan nan nan nan nan nan nan nan nan nan nan nan nan nan nan nan nan nan nan nan nan nan nan -0 -0 -0 -0 -0 -0 -0 -0 -0 -0 -0 -0 -0 -0 -0 -0 -0 -0
nan nan nan nan nan nan nan nan nan nan nan nan nan nan nan nan nan nan nan nan nan nan nan nan nan nan -0 -0 -0 -0 nan nan nan nan nan nan nan nan nan nan nan nan nan nan nan nan nan nan nan nan nan nan nan nan nan nan nan nan nan nan nan nan nan nan nan nan nan nan -0 -0 -0 -0 -0 -0 -0 -0 -0 -0 -0 -0 -0 -0 -0 -0 -0 -0
nan nan nan nan nan nan nan nan nan nan nan nan nan nan nan nan nan nan nan nan nan nan nan nan nan nan -0 -0 nan nan nan nan nan nan nan nan nan nan nan nan nan nan nan nan nan nan nan nan nan nan nan nan nan nan nan nan nan nan nan nan nan nan nan nan nan nan nan nan -0 -0 -0 -0 -0 -0 -0 -0 -0 -0 -0 -0 -0 -0 -0 -0 -0 -0
nan nan nan nan nan nan nan nan nan nan nan nan nan nan nan nan nan nan nan nan nan nan nan nan nan nan nan nan nan nan nan nan nan nan nan nan nan nan nan nan nan nan nan nan nan nan nan nan nan nan nan nan nan nan nan nan nan nan nan nan nan nan nan nan nan nan nan nan -0 -0 -0 -0 -0 -0 -0 -0 -0 -0 -0 -0 -0 -0 -0 -0 -0 -0
nan nan nan nan nan nan nan nan nan nan nan nan nan nan nan nan nan nan nan nan nan nan nan nan nan nan nan -0 nan nan nan nan nan nan nan nan nan nan nan nan nan nan nan nan nan nan nan nan nan nan nan nan nan nan nan nan nan nan nan nan nan nan nan nan nan nan nan -0 -0 -0 -0 -0 -0 -0 -0 -0 -0 -0 -0 -0 -0 -0 -0 -0 -0 -0
nan nan nan nan nan nan nan nan nan nan nan nan nan nan nan nan nan nan nan nan nan nan nan nan nan nan nan nan nan nan nan nan nan nan nan nan nan nan nan nan nan nan nan nan nan nan nan nan nan nan nan nan nan nan nan nan nan nan nan nan nan nan nan nan nan nan -0 -0 -0 -0 -0 -0 -0 -0 -0 -0 -0 -0 -0 -0 -0 -0 -0 -0 -0 -0
nan nan nan nan nan nan nan nan nan nan nan nan nan nan nan nan nan nan nan nan nan nan nan nan nan nan nan nan nan nan nan nan nan nan nan nan nan nan nan nan nan nan nan nan nan nan nan nan nan nan nan nan nan nan nan nan nan nan nan nan nan nan nan nan nan -0 -0 -0 -0 -0 -0 -0 -0 -0 -0 -0 -0 -0 -0 -0 -0 -0 -0 -0 -0 -0
nan nan nan nan nan nan nan nan nan nan nan nan nan nan nan nan nan nan nan nan nan nan nan nan nan nan nan nan nan nan nan nan nan nan nan nan nan nan nan nan nan nan nan nan nan nan nan nan nan nan nan nan nan nan nan nan nan nan nan nan nan nan nan -0 -0 -0 -0 -0 -0 -0 -0 -0 -0 -0 -0 -0 -0 -0 -0 -0 -0 -0 -0 -0 -0 -0
nan nan nan nan nan nan nan nan nan nan nan nan nan nan nan nan nan nan nan nan nan nan nan nan nan nan nan nan nan nan nan nan nan nan nan nan nan nan nan nan nan nan nan nan nan nan nan nan nan nan nan nan nan nan nan nan nan nan nan nan nan nan nan -0 -0 -0 -0 -0 -0 -0 -0 -0 -0 -0 -0 -0 -0 -0 -0 -0 -0 -0 -0 -0 -0 -0
nan nan nan nan nan nan nan nan nan nan nan nan nan nan nan nan nan nan nan nan nan nan nan nan nan nan nan nan nan nan nan nan nan nan nan nan nan nan nan nan nan nan nan nan nan nan nan nan nan nan nan nan nan nan nan nan nan nan nan nan nan nan nan nan nan -0 -0 -0 -0 -0 -0 -0 -0 -0 -0 -0 -0 -0 -0 -0 -0 -0 -0 -0 -0 -0
nan nan nan nan nan nan nan nan nan nan nan nan nan nan nan nan nan nan nan nan nan nan nan nan nan nan nan nan nan nan nan nan nan nan nan nan nan nan nan nan nan nan nan nan nan nan nan nan nan nan nan nan nan nan nan nan nan nan nan nan nan nan nan nan nan nan -0 -0 -0 -0 -0 -0 -0 -0 -0 -0 -0 -0 -0 -0 -0 -0 -0 -0 -0 -0
nan nan nan nan nan nan nan nan nan nan nan nan nan nan nan nan nan nan nan nan nan nan nan nan nan nan nan nan nan nan nan nan nan nan nan nan nan nan nan nan nan nan nan nan nan nan nan nan nan nan nan nan nan nan nan nan nan nan nan nan nan nan nan nan nan nan nan nan -0 -0 -0 -0 -0 -0 -0 -0 -0 -0 -0 -0 -0 -0 -0 -0 -0 -0
-0 -0 -0 -0 -0 -0 -0 -0 -0 -0 nan nan nan nan nan nan nan nan nan nan nan nan nan nan nan nan nan nan nan nan nan nan nan nan nan nan nan nan nan nan nan nan nan nan nan nan nan nan nan nan nan nan nan nan nan nan nan nan nan nan nan nan nan nan nan nan nan nan nan nan -0 -0 -0 -0 -0 -0 -0 -0 -0 -0 -0 -0 -0 -0 -0 -2
-0 -0 -0 -0 -0 -0 -0 -0 -0 -0 nan nan nan nan nan nan nan nan nan nan nan nan nan nan nan nan nan nan nan nan nan nan nan nan nan nan nan nan nan nan nan nan nan nan nan nan nan nan nan nan nan nan nan nan nan nan nan nan nan nan nan nan nan nan nan nan nan nan -0 -0 -0 -0 -0 -0 -0 -0 -0 -0 -0 -0 -0 -0 -0 nan nan nan
-0 -0 -0 -0 -0 -0 -0 -0 -0 -0 -0 nan nan nan nan nan nan nan nan nan nan nan nan nan nan nan nan nan nan nan nan nan nan nan nan nan nan nan nan nan nan nan nan nan nan nan nan nan nan nan nan nan nan nan nan nan nan nan nan nan nan nan nan nan nan nan nan nan -0 -0 -0 -0 -0 -0 -0 -0 -0 -0 -0 -0 -0 -0 nan nan nan nan
nan -0 -0 -0 -0 -0 -0 -0 -0 -0 -0 -0 nan nan nan nan nan nan nan nan nan nan nan nan nan nan nan nan nan nan nan nan nan nan nan nan nan nan nan nan nan nan nan nan nan nan nan nan nan nan nan nan nan nan nan nan nan nan nan nan nan nan nan nan nan nan nan nan -0 -0 -0 -0 -0 -0 -0 -0 -0 -0 -0 -0 -0 nan nan nan nan nan
nan nan nan nan nan nan nan nan nan nan -0 -0 nan nan nan nan nan nan nan nan nan nan nan nan nan nan nan nan nan nan nan nan nan nan nan nan nan nan nan nan nan nan nan nan nan nan nan nan nan nan nan nan nan nan nan nan nan nan nan nan nan nan nan nan nan nan nan nan nan nan -0 -0 -0 -0 -0 -0 -0 -0 -0 -0 -0 nan nan nan nan nan
nan nan nan nan nan nan nan nan nan nan nan nan nan nan nan nan nan nan nan nan nan nan nan nan nan nan nan nan nan nan nan nan nan nan nan nan nan nan nan nan nan nan nan nan nan nan nan nan nan nan nan nan nan nan nan nan nan nan nan nan nan nan nan nan nan nan nan nan nan nan nan nan nan nan nan nan nan nan nan -0 -0 -0 nan nan nan nan
nan nan nan nan nan nan nan nan nan nan nan nan nan nan nan nan nan nan nan nan nan nan nan nan nan nan nan nan nan nan nan nan nan nan nan nan nan nan nan nan nan nan nan nan nan nan nan nan nan nan nan nan nan nan nan nan nan nan nan nan nan nan nan nan nan nan nan nan nan nan nan nan nan nan nan nan nan nan nan -0 -0 -0 -8 nan nan nan
nan nan nan nan nan nan nan nan nan nan nan nan nan nan nan nan nan nan nan nan nan nan nan nan nan nan nan nan nan nan nan nan nan nan nan nan nan nan nan nan nan nan nan nan nan nan nan nan nan nan nan nan nan nan nan nan nan nan nan nan nan nan nan nan nan nan nan nan nan nan nan nan nan nan nan nan nan nan -0 -0 -0 -0 -0 nan nan nan
nan nan nan nan nan nan nan nan nan nan nan nan nan nan nan nan nan nan nan nan nan nan nan nan nan nan nan nan nan nan nan nan nan nan nan nan nan nan nan nan nan nan nan nan nan nan nan nan nan nan nan nan nan nan nan nan nan nan nan nan nan nan nan nan nan nan nan nan nan nan nan nan nan nan nan nan nan nan -0 -0 -0 -0 -0 -0 -0 nan
nan nan nan nan nan nan nan nan nan nan nan nan nan nan nan nan nan nan nan nan nan nan nan nan nan nan nan nan nan nan nan nan nan nan nan nan nan nan nan nan nan nan nan nan nan nan nan nan nan nan nan nan nan nan nan nan nan nan nan nan nan nan nan nan nan nan nan nan nan nan nan nan nan nan nan nan nan nan nan nan nan -0 -0 -0 -0 -0
nan nan nan nan nan nan nan nan nan nan nan nan nan nan nan nan nan nan nan nan nan nan nan nan nan nan nan nan nan nan nan nan nan nan nan nan nan nan nan nan nan nan nan nan nan nan nan nan nan nan nan nan nan nan nan nan nan nan nan nan nan nan nan nan nan nan nan nan nan nan nan nan nan nan nan nan nan nan nan nan nan nan -0 -0 -0 -0
nan nan nan nan nan nan nan nan nan nan nan nan nan nan nan nan nan nan nan nan nan nan nan nan nan nan nan nan nan nan nan nan nan nan nan nan nan nan nan nan nan nan nan nan nan nan nan nan nan nan nan nan nan nan nan nan nan nan nan nan nan nan nan nan nan nan nan nan nan nan nan nan nan nan nan nan nan nan nan nan nan nan nan nan nan -0
nan nan nan nan nan nan nan nan nan nan nan nan nan nan nan nan nan nan nan nan nan nan nan nan nan nan nan nan nan nan nan nan nan nan nan nan nan nan nan nan nan nan nan nan nan nan nan nan nan nan nan nan nan nan nan nan nan nan nan nan nan nan nan nan nan nan nan nan nan nan nan nan nan nan nan nan nan nan nan nan nan nan nan nan nan nan
nan nan nan nan nan nan nan nan nan nan nan nan nan nan nan nan nan nan nan nan nan nan nan nan nan nan nan nan nan nan nan nan nan nan nan nan nan nan nan nan nan nan nan nan nan nan nan nan nan nan nan nan nan nan nan nan nan nan -4 nan nan nan nan nan nan nan nan nan nan nan nan nan nan nan nan nan nan nan nan nan nan nan nan nan nan nan
nan nan nan nan nan nan nan nan nan nan nan nan nan nan nan nan nan nan nan nan nan nan nan nan nan nan nan nan nan nan nan nan nan nan nan nan nan nan nan nan nan nan nan nan nan nan nan nan nan nan nan nan nan nan nan nan nan -3 -0 nan nan nan nan nan nan nan nan nan nan nan nan nan nan nan nan nan nan nan nan nan nan nan nan nan nan nan
nan nan nan nan nan nan nan nan nan nan nan nan nan nan nan nan nan nan nan nan nan nan nan nan nan nan nan nan nan nan nan nan nan nan nan nan nan nan nan nan nan nan nan nan nan nan nan nan nan nan nan nan nan nan nan nan nan nan nan nan nan nan -5 nan nan nan nan nan nan nan nan nan nan nan nan nan nan nan nan nan nan nan nan nan nan nan
nan nan nan nan nan nan nan nan nan nan nan nan nan nan nan nan nan nan nan nan nan nan nan nan nan nan nan nan nan nan nan nan nan nan nan nan nan nan nan nan nan nan nan nan nan nan nan nan nan nan nan nan nan nan nan nan nan nan nan nan nan nan nan nan nan nan nan nan nan nan nan nan nan nan nan nan nan nan nan nan nan nan nan nan nan nan
nan nan nan nan nan nan nan nan nan nan nan nan nan nan nan nan nan nan nan nan nan nan nan nan nan nan nan nan nan nan nan nan nan nan nan nan nan nan nan nan nan nan nan nan nan nan nan nan nan nan nan nan nan nan nan nan nan nan nan nan nan nan nan nan nan nan nan nan nan nan nan nan nan nan nan nan nan nan nan nan nan nan nan nan nan nan
nan nan nan nan nan nan nan nan nan nan nan nan nan nan nan nan nan nan nan nan nan nan nan nan nan nan nan nan nan nan nan nan nan nan nan nan -0 -0 nan nan nan nan nan nan nan nan nan nan nan nan nan nan nan nan nan nan nan nan nan nan nan nan nan nan nan nan nan nan nan nan nan nan nan nan nan nan nan nan nan nan nan nan nan nan nan nan
nan nan nan nan nan nan nan nan nan nan nan nan nan nan nan nan nan nan nan nan nan nan nan nan nan nan nan nan nan nan nan nan nan nan nan nan nan nan nan nan nan nan nan nan nan nan nan nan nan nan nan nan nan nan nan nan nan nan nan nan nan nan nan nan nan nan nan nan nan nan nan nan nan nan nan nan nan nan nan nan nan nan nan nan nan nan
nan nan nan nan nan nan nan nan nan nan nan nan nan nan nan nan nan nan nan nan nan nan nan nan nan nan nan nan nan nan nan nan nan nan nan nan nan nan nan nan nan nan nan nan nan nan nan nan nan nan nan nan nan nan nan nan nan nan nan nan nan nan nan nan nan nan nan nan nan nan nan nan nan nan nan nan nan nan nan nan nan nan nan nan nan nan
nan nan nan nan nan nan nan nan nan nan nan nan nan nan nan nan nan nan nan nan nan nan nan nan nan nan nan nan nan nan nan nan nan nan nan nan nan nan nan nan nan nan nan nan nan nan nan nan nan nan nan nan nan nan nan nan nan nan nan nan nan nan nan nan nan nan nan nan nan nan nan nan nan nan nan nan nan nan nan nan nan nan nan nan nan nan
nan nan nan nan nan nan nan nan nan nan nan nan nan nan nan nan nan nan nan nan nan nan nan nan nan nan nan nan nan nan nan nan nan nan nan nan nan nan nan nan nan nan nan nan nan nan nan nan nan nan nan nan nan nan nan nan nan nan nan nan nan nan nan nan nan nan nan nan nan nan nan nan nan nan nan nan nan nan nan nan nan nan nan nan nan nan
nan nan nan nan nan nan nan nan nan nan nan nan nan nan nan nan nan nan nan nan nan nan nan nan nan nan nan nan nan nan nan nan nan nan nan nan nan nan nan nan nan nan nan nan nan nan nan nan nan nan nan nan nan nan nan nan nan nan nan nan nan nan nan nan nan nan nan nan nan nan nan nan nan nan nan nan nan nan nan nan nan nan nan nan nan nan
nan nan nan nan nan nan nan nan nan nan nan nan nan nan nan nan nan nan nan nan nan nan nan nan nan nan nan nan nan nan nan nan nan nan nan nan nan nan nan nan nan nan nan nan nan nan nan nan nan nan nan nan nan nan nan nan nan nan nan nan nan nan nan nan nan nan nan nan nan nan nan nan nan nan nan nan nan nan nan nan nan nan nan nan nan nan
Wind_Speed
3 3 2 3 3 3 2 3 3 3 3 3 3 4 4 5 5 5 7 6 6 8 10 10 10 11 13 15 17 17 17 18 18 18 18 17 17 16 16 15 14 14 14 13 13 13 12 12 11 10 10 9 8 7 6 5 4 3 3 2 2 1 1 1 1 1 1 1 2 2 3 4 4 4 4 4 5 5 6 6 6 7 7 8 8 9
3 3 2 2 3 3 2 3 3 3 3 3 3 3 3 4 4 4 5 6 6 6 8 9 10 11 12 13 15 16 16 16 16 16 16 16 16 16 15 15 14 13 12 12 11 11 11 10 10 9 9 8 7 6 5 4 3 2 2 1 1 0 0 0 1 1 1 2 3 3 3 4 4 4 4 4 5 5 6 6 6 7 8 8 8 9
3 3 2 2 2 3 3 3 3 3 3 3 3 3 4 4 4 4 4 4 5 6 7 8 9 10 10 12 14 15 15 14 14 14 14 14 15 15 14 14 13 12 11 11 10 10 9 9 9 9 8 7 7 6 5 4 3 2 1 1 1 0 1 1 1 2 2 2 3 3 3 3 3 4 4 4 5 5 6 6 7 7 8 8 9 9
3 3 3 2 2 3 3 3 3 3 3 4 4 4 5 5 4 4 3 3 4 5 6 7 8 8 8 9 11 13 14 13 12 12 12 12 13 13 13 13 12 11 10 9 9 8 8 8 8 8 7 7 6 5 4 3 3 2 2 1 1 1 1 1 1 2 2 2 2 2 3 3 3 4 4 4 5 5 6 6 7 8 8 8 9 9
3 3 3 2 2 2 3 3 3 3 4 4 4 5 5 4 4 3 3 4 4 5 6 7 8 8 7 7 9 11 12 12 11 10 10 10 10 11 11 11 11 10 9 8 8 8 8 7 7 7 7 6 6 5 4 4 3 2 2 2 2 1 1 1 1 1 2 2 2 2 2 3 3 4 4 5 5 5 6 6 7 8 8 9 9 10
3 2 2 2 2 2 2 2 3 3 3 4 4 4 4 4 4 3 3 4 4 4 5 5 6 7 6 7 8 10 11 11 10 9 9 9 9 9 10 10 9 9 8 8 8 7 7 7 7 6 6 6 6 5 4 4 3 3 3 2 2 2 2 1 1 1 1 1 1 2 2 3 3 4 4 5 5 6 6 7 7 8 8 9 9 10
3 2 2 2 2 2 2 2 2 2 3 3 3 4 4 4 4 4 4 4 4 4 4 5 5 6 6 7 8 9 9 9 9 9 8 8 8 8 8 8 8 8 8 8 8 8 7 7 6 6 6 5 5 5 4 4 3 3 3 3 2 2 2 2 1 1 1 1 1 2 2 3 3 4 4 5 5 6 6 7 8 8 9 9 9 10
3 3 2 2 2 2 2 2 2 2 2 3 3 3 3 3 4 4 5 4 4 4 3 4 5 5 5 6 6 7 6 6 6 6 6 6 6 7 7 8 8 8 8 8 8 7 6 6 5 5 5 5 5 5 4 4 4 3 3 3 2 2 2 1 1 1 1 1 2 2 2 3 4 4 5 5 6 6 7 7 8 9 9 9 10 10
5 4 3 2 3 3 2 1 1 1 1 2 2 3 3 3 3 3 4 4 4 3 3 3 4 4 5 5 5 5 5 5 5 5 5 4 4 5 6 7 7 7 7 7 6 6 6 5 5 4 4 5 5 5 5 4 4 4 3 3 2 2 2 1 1 1 1 1 2 2 3 3 4 5 5 6 6 7 7 8 8 9 9 10 10 10
4 4 3 2 2 2 2 2 1 1 1 2 2 2 3 3 3 3 4 3 3 3 2 3 4 4 4 3 3 3 4 5 6 7 7 6 5 6 6 6 5 5 5 5 5 5 5 5 4 4 4 5 5 5 5 5 4 4 3 3 2 2 1 1 1 1 1 2 2 3 3 4 4 5 6 6 6 7 7 8 8 9 9 10 10 11
4 3 3 3 2 2 2 2 1 1 1 2 2 2 2 2 3 3 4 3 2 2 2 2 3 3 3 3 3 3 3 4 5 6 6 6 6 6 6 5 4 3 3 4 4 4 4 4 4 4 5 5 5 5 5 5 5 4 3 3 2 1 1 0 0 1 1 2 2 3 3 4 5 5 6 6 7 7 8 8 9 9 9 10 10 11
3 3 2 2 2 2 2 2 1 1 1 2 2 2 1 1 1 2 4 3 3 2 2 2 2 3 3 2 2 2 3 3 3 3 3 4 4 4 4 3 2 2 2 2 3 3 4 4 4 4 5 5 5 6 6 5 5 4 3 3 2 1 1 0 0 1 1 2 2 3 4 4 5 6 6 6 7 7 8 8 9 9 9 10 10 10
3 2 2 2 2 2 2 2 2 1 1 2 3 3 3 2 1 2 3 3 3 3 3 3 2 3 3 2 2 2 2 2 2 2 2 2 2 2 2 2 1 1 1 1 1 2 3 3 3 3 4 5 5 5 6 5 5 4 3 2 2 1 1 1 1 1 2 2 3 3 4 5 5 6 6 7 7 8 8 8 9 9 9 10 10 10
3 3 2 2 2 2 2 3 3 3 3 3 3 2 3 2 2 2 3 3 3 3 3 3 3 2 2 2 2 2 2 2 2 2 2 2 2 2 1 1 1 1 1 1 1 2 2 2 2 2 3 4 4 5 5 5 4 3 3 2 2 2 1 1 1 2 2 2 3 4 4 5 5 6 6 7 7 8 8 9 9 9 10 10 10 10
4 4 3 3 3 3 3 3 4 3 3 2 2 2 3 3 3 3 4 4 3 3 3 3 3 2 2 2 1 1 1 2 2 2 2 2 1 1 1 1 1 2 2 2 3 2 3 3 2 2 2 2 3 4 4 4 3 3 3 3 2 2 2 2 2 2 3 3 4 4 5 5 6 6 7 7 8 8 8 9 9 9 10 10 10 10
4 4 4 4 4 3 3 3 3 3 2 2 2 3 3 3 3 3 4 5 4 3 3 3 3 2 1 1 1 1 1 1 2 2 2 1 1 0 1 2 2 3 3 3 3 2 2 2 2 2 1 2 3 4 4 4 3 3 3 3 3 3 3 3 3 3 3 4 4 5 5 6 6 7 7 8 8 8 9 9 9 10 10 10 10 10
4 4 4 4 4 3 3 2 2 2 2 2 2 2 3 4 4 4 4 4 4 3 3 3 3 2 1 1 1 1 1 1 2 2 2 1 0 1 2 2 3 4 3 2 2 2 2 2 2 1 2 3 4 4 4 4 3 3 4 4 4 4 4 4 4 4 4 4 5 5 6 6 7 7 8 8 8 9 9 9 10 10 10 10 10 10
4 4 4 4 3 3 3 3 2 2 2 2 2 2 2 2 2 3 4 4 3 3 2 2 2 2 2 1 1 2 2 2 2 2 2 1 0 1 2 2 2 3 2 1 1 1 2 2 1 1 1 2 3 3 3 3 3 4 4 4 4 4 4 4 4 5 5 5 5 6 6 7 7 8 8 8 9 9 9 9 10 10 10 10 10 11
3 3 3 3 3 3 3 3 3 3 3 3 3 3 2 2 2 2 3 3 3 3 3 2 2 1 1 1 1 2 2 2 2 2 2 1 1 1 2 2 1 1 1 1 2 2 2 1 1 1 1 1 0 1 2 2 3 3 4 4 4 4 4 4 5 5 5 5 6 6 7 7 7 8 8 8 9 9 9 9 10 10 10 10 11 11
3 3 3 3 3 3 3 4 4 4 4 4 4 4 3 3 3 2 2 2 2 2 2 2 2 1 1 1 2 2 2 2 2 2 2 1 1 1 2 1 0 1 1 1 2 2 1 1 2 3 4 3 2 1 1 2 2 3 3 3 4 4 4 4 5 5 5 6 6 7 7 7 8 8 8 8 8 9 9 9 10 10 10 11 11 11
3 3 2 3 3 3 3 4 4 4 5 5 5 4 4 4 3 3 2 2 2 2 2 2 2 2 1 1 2 2 2 1 1 2 2 1 0 1 1 1 0 1 1 1 2 2 2 2 2 3 4 4 3 2 2 2 2 3 3 3 3 4 4 4 5 5 5 6 6 7 7 7 8 8 8 8 8 9 9 9 10 10 10 10 11 11
4 3 2 3 3 3 4 4 5 5 6 6 5 5 4 4 4 4 3 3 3 3 2 2 2 2 2 2 2 2 2 0 1 2 2 2 1 1 1 1 1 1 2 1 1 2 2 2 2 3 4 5 4 3 3 3 3 3 3 3 3 3 3 4 4 5 6 6 7 7 7 7 7 8 8 8 8 9 9 9 10 10 10 10 10 11
3 3 3 2 2 2 3 4 4 5 5 5 4 4 3 4 4 4 4 3 3 3 4 3 3 3 3 2 2 1 1 1 1 1 2 2 1 0 1 1 1 1 1 1 1 2 2 2 2 3 4 5 4 3 2 2 2 2 2 2 2 3 3 4 4 5 6 6 6 7 7 7 7 8 8 8 9 9 9 9 10 10 10 10 10 10
4 4 3 3 3 3 3 3 3 3 3 3 3 3 3 3 4 4 4 4 4 4 4 4 4 3 2 1 1 1 1 1 1 1 2 2 1 0 1 1 1 2 1 1 1 2 2 2 2 2 3 4 4 3 2 1 1 2 2 2 3 3 3 4 4 5 5 6 6 7 7 7 8 8 8 8 9 9 9 9 9 9 10 10 10 10
4 4 4 3 4 5 5 5 5 5 4 4 4 4 5 5 6 6 5 5 5 5 5 4 3 2 1 0 0 1 1 1 1 0 2 2 1 0 1 1 1 1 1 1 1 2 2 2 2 2 2 3 4 4 4 4 4 4 4 4 4 4 4 4 5 5 6 6 7 7 8 8 8 8 8 9 9 9 9 9 9 9 9 10 9 9
6 7 7 7 9 9 10 9 9 9 8 7 5 5 6 6 6 6 5 5 5 5 5 4 3 1 1 1 1 1 2 1 1 0 1 2 1 1 1 1 1 1 1 1 2 2 2 2 2 2 2 3 4 5 6 7 6 6 6 5 5 4 4 5 5 6 6 7 7 8 8 8 8 8 9 9 9 9 9 9 9 9 9 9 9 8
12 12 13 13 13 13 13 13 13 13 12 11 9 8 7 7 6 6 5 5 5 5 5 3 2 2 1 0 1 1 2 1 1 1 1 2 2 1 1 1 1 1 1 1 2 2 2 2 2 2 2 2 3 5 7 8 8 7 7 6 6 6 6 6 6 7 7 8 8 8 8 8 8 8 9 9 9 9 9 9 9 9 9 8 7 6
15 15 14 14 14 14 14 14 14 14 14 14 13 12 9 7 6 6 6 5 5 5 4 3 3 2 2 1 1 1 2 1 1 1 1 2 2 1 1 1 1 1 1 1 2 2 3 2 2 2 2 3 3 4 6 7 8 8 7 7 7 7 7 7 7 8 8 8 8 8 8 8 8 8 8 9 9 9 9 9 9 9 8 6 4 2
14 14 14 14 14 14 14 13 13 13 14 14 13 11 7 5 5 6 6 6 5 4 4 3 3 2 2 1 0 1 2 1 1 1 1 2 2 1 0 1 1 1 1 1 2 2 2 2 1 2 2 3 3 3 4 5 6 6 6 7 7 8 8 8 8 8 8 8 8 8 8 8 8 9 9 9 9 9 9 10 9 8 5 3 2 2
10 10 10 10 10 10 9 8 9 11 12 12 11 8 5 3 3 4 5 5 5 5 4 3 3 2 2 1 1 1 1 1 1 0 1 2 2 1 0 1 1 1 1 1 1 1 2 2 2 2 2 3 3 3 3 3 3 4 4 5 6 7 8 9 9 9 8 8 8 9 9 9 9 9 9 9 9 10 10 10 9 6 3 2 2 2
7 7 6 6 6 6 6 5 6 7 8 9 8 6 4 3 3 4 5 5 5 5 4 3 3 3 2 2 2 1 1 1 1 1 2 2 1 1 1 1 1 1 1 1 1 1 0 1 2 2 2 2 3 2 2 2 2 2 2 3 4 5 7 8 8 8 8 8 9 9 9 9 10 10 10 10 10 10 11 11 9 7 3 2 2 2
6 6 5 5 5 5 5 5 5 5 5 5 5 5 4 4 3 3 3 3 4 4 4 4 3 2 2 2 2 2 1 1 1 2 2 2 1 1 1 1 1 0 1 1 2 2 2 1 1 2 2 2 2 2 2 2 2 2 2 2 2 3 6 7 7 7 7 7 8 9 9 10 10 10 11 11 11 11 11 11 10 8 4 3 3 3
5 5 4 4 4 4 4 4 4 4 4 4 4 4 4 4 4 3 2 2 3 3 4 4 4 3 2 2 2 1 1 1 2 3 3 2 2 1 1 1 1 1 1 1 1 2 2 1 1 2 2 2 2 2 2 2 2 1 2 2 2 2 4 5 5 5 5 6 6 7 8 9 10 10 11 11 12 12 12 12 11 9 6 4 3 4
5 5 5 5 4 4 4 4 4 4 4 4 4 4 4 4 4 4 3 2 2 2 3 4 4 4 3 2 2 1 0 1 2 3 3 3 2 1 1 1 1 1 1 1 1 1 1 1 0 1 2 2 2 2 2 2 2 1 1 1 1 2 3 3 3 3 4 4 4 4 6 6 7 9 10 10 11 11 12 12 12 11 10 7 5 4
5 5 4 4 4 4 4 4 4 4 4 4 4 4 4 4 4 3 3 3 3 2 2 2 3 3 3 3 3 2 1 1 2 3 3 3 2 2 1 1 1 2 2 1 1 1 1 1 0 0 1 2 2 2 2 2 2 2 1 1 2 2 2 2 2 2 3 3 3 3 4 4 4 5 6 8 10 11 12 12 13 13 13 11 9 7
4 4 4 4 4 4 4 4 4 4 4 3 3 3 3 3 3 3 3 3 3 3 3 3 2 2 3 3 3 3 3 2 3 3 3 3 2 2 2 1 2 2 2 2 2 1 1 1 0 0 0 1 2 2 2 2 2 2 2 2 2 3 3 2 1 1 2 2 3 3 3 3 3 4 5 8 10 11 12 12 13 13 13 13 12 11
4 3 3 3 3 3 4 3 3 3 3 3 3 3 3 3 3 3 3 3 3 4 4 4 3 3 3 3 3 3 4 3 2 2 3 3 2 2 2 1 2 2 2 2 2 2 2 1 1 0 1 1 1 2 2 2 2 2 2 2 2 3 3 2 1 1 1 2 3 3 3 3 3 4 5 8 9 10 11 11 12 12 13 13 14 14
3 3 2 2 2 2 2 2 2 2 2 2 2 3 3 3 3 3 3 3 3 3 3 3 3 4 5 5 4 4 4 3 3 3 3 3 3 3 2 2 2 2 2 3 3 2 2 2 1 1 1 1 2 2 2 2 2 2 2 2 2 2 2 2 2 2 2 3 3 4 4 4 3 3 4 5 5 5 5 6 7 9 11 11 12 13
3 2 2 2 2 1 2 2 2 2 2 2 3 3 3 3 4 4 3 3 3 3 3 3 3 3 4 4 4 4 4 4 3 3 3 3 3 3 3 2 2 2 2 2 2 3 3 2 2 1 1 1 2 2 2 2 2 2 2 2 2 2 2 2 2 2 2 2 3 4 4 3 3 3 3 3 3 3 3 4 4 5 6 5 7 9
3 2 2 2 2 1 1 2 2 2 2 2 3 3 3 3 3 3 3 3 3 3 3 3 3 3 3 4 3 3 3 3 3 3 3 2 2 2 3 3 3 2 2 2 2 2 3 2 2 2 1 1 2 2 2 2 2 2 3 2 2 2 2 2 2 2 2 1 2 2 3 3 3 3 3 3 3 3 3 3 4 4 4 3 3 4
3 2 2 2 2 2 2 1 1 1 1 2 2 3 3 3 2 2 2 2 3 3 2 3 3 3 3 3 3 3 3 2 1 2 2 2 2 3 3 3 3 2 2 2 2 2 2 2 2 2 2 2 2 3 3 2 3 3 4 3 2 3 3 3 3 2 1 1 2 2 4 5 5 5 4 4 4 3 3 4 4 4 4 3 3 3
4 3 2 1 1 2 2 2 1 1 2 2 2 2 2 2 2 2 2 2 2 2 2 2 2 3 3 3 3 3 3 2 1 1 1 2 2 3 3 3 2 2 2 2 2 1 2 2 2 2 2 2 2 2 2 2 2 3 3 3 3 4 4 3 2 1 1 2 3 3 5 5 5 5 5 4 4 4 4 4 5 5 5 3 3 3
3 2 1 1 1 2 2 2 2 2 2 3 2 2 2 1 1 2 2 2 2 2 2 2 2 2 3 3 3 3 3 3 2 1 1 2 2 2 3 3 3 2 2 2 1 1 2 2 2 2 2 2 2 3 3 3 3 3 2 3 4 3 2 2 1 1 1 2 3 4 4 4 4 4 5 4 4 4 4 5 6 7 6 4 4 4
2 1 1 1 2 2 2 2 2 2 2 2 2 2 1 1 1 2 2 2 2 2 2 2 2 2 3 3 3 3 3 3 3 2 2 1 2 3 3 3 2 2 2 2 2 1 1 1 2 2 2 2 2 3 3 3 3 3 3 3 3 3 3 3 2 2 2 3 3 3 3 4 4 5 4 4 4 3 3 3 4 4 5 5 5 5
1 1 1 1 2 2 2 2 2 2 2 2 2 1 1 1 2 2 2 2 2 2 1 1 2 2 2 2 2 2 2 3 3 3 3 3 2 2 2 2 2 2 2 2 2 1 1 1 2 2 2 2 2 3 3 3 3 3 4 4 3 3 3 3 3 3 3 3 3 3 3 3 4 4 5 4 4 4 3 3 4 4 5 5 5 5
2 2 2 2 2 2 1 1 1 1 2 2 2 1 1 1 1 2 2 2 2 2 1 1 2 2 2 1 1 2 2 2 3 3 3 3 4 3 2 1 2 2 1 1 1 2 2 2 2 2 2 2 3 3 3 3 3 3 3 3 3 3 3 3 2 2 2 2 3 3 3 3 3 4 5 5 5 4 4 4 4 5 5 5 5 5
2 2 1 1 1 1 1 1 1 2 2 2 1 1 0 1 1 2 2 2 2 2 2 2 2 2 2 1 1 1 1 1 2 2 3 3 3 3 2 1 1 1 1 1 1 2 3 3 3 2 2 2 3 3 3 2 2 3 3 3 3 3 3 2 2 1 1 1 2 3 3 3 3 4 5 6 5 5 4 4 4 5 5 5 5 5
2 2 1 1 1 1 1 1 1 2 2 2 1 1 1 2 2 3 2 2 2 2 2 2 2 2 2 1 1 1 1 1 0 1 2 2 2 2 2 2 2 1 1 1 1 2 3 3 4 4 3 3 3 3 2 2 2 2 3 3 3 3 2 2 2 2 1 2 2 3 2 3 3 5 6 7 7 6 5 4 4 4 5 5 5 4
2 2 1 1 1 1 1 1 1 2 2 2 1 1 1 3 4 4 2 2 2 2 2 2 2 2 2 1 1 1 1 1 0 1 1 2 1 1 2 2 2 2 2 2 2 2 2 2 3 4 5 4 4 3 3 3 2 2 2 2 2 2 2 2 2 2 2 2 3 3 2 2 3 4 5 7 8 8 7 5 4 4 4 4 4 4
1 1 1 1 1 1 0 1 1 2 3 2 2 2 2 2 2 2 2 2 2 2 2 2 2 2 2 2 1 1 0 0 0 1 1 1 1 1 2 2 2 2 2 2 2 2 3 3 3 3 4 5 4 4 2 2 2 2 2 2 1 1 1 2 2 2 2 3 3 3 3 3 3 3 4 6 8 9 8 7 5 4 3 3 3 3
1 1 1 1 1 0 0 1 1 2 3 2 2 2 2 2 2 2 2 2 2 2 2 2 2 2 2 2 1 1 0 0 0 0 1 0 1 1 2 2 2 2 2 2 2 2 2 3 3 3 3 3 3 4 3 2 0 1 2 2 1 1 1 2 3 3 3 3 3 3 3 3 3 3 4 5 6 8 8 8 7 5 4 3 3 4
Wind_Direction
109 115 113 109 103 89 61 49 61 76 75 59 48 41 38 38 31 19 10 22 60 88 96 98 100 102 104 105 107 108 110 112 114 116 118 118 118 118 118 117 117 117 118 121 124 128 132 136 140 142 144 145 146 147 148 153 159 169 180 190 200 210 221 229 245 274 317 340 354 1 6 6 1 353 342 332 325 321 320 320 319 316 312 309 306 303
109 108 104 98 99 98 88 54 55 70 86 75 64 54 51 50 43 29 15 17 36 65 85 92 95 97 98 102 104 105 107 109 112 115 117 118 118 118 117 116 116 116 117 120 123 127 132 135 137 139 140 140 141 143 143 148 154 162 171 177 189 211 258 331 354 3 10 11 12 11 10 4 354 343 333 326 323 322 324 322 318 314 310 307 304 300
129 124 122 95 89 92 96 74 65 68 83 82 73 63 59 58 52 39 22 16 29 50 70 80 86 89 90 95 100 102 103 105 108 111 113 115 115 116 115 115 115 116 118 121 125 130 135 138 140 141 141 141 141 142 143 146 150 153 155 148 129 83 48 30 26 24 24 21 18 13 6 356 344 334 329 327 327 326 326 321 315 310 307 305 303 301
137 137 133 95 70 69 84 92 89 80 78 77 70 64 60 61 56 45 28 24 34 47 59 67 74 79 82 87 93 97 99 100 102 104 106 108 110 111 112 112 114 116 120 125 130 136 141 144 146 146 145 144 143 143 145 148 150 152 152 143 130 112 84 63 46 38 33 26 18 10 359 348 339 335 332 331 329 327 323 317 311 307 306 305 305 304
135 130 122 100 79 72 74 87 93 93 86 79 73 67 62 62 60 52 37 32 38 47 57 62 67 71 76 81 89 93 95 95 95 96 98 101 104 106 108 111 115 119 125 131 137 143 148 151 152 151 148 146 144 143 145 149 152 154 155 149 140 125 107 88 68 52 40 30 17 6 354 347 341 338 335 331 327 322 318 313 309 307 307 307 307 307
121 103 97 92 92 92 89 89 96 99 94 84 76 71 67 65 62 58 49 40 39 44 54 59 63 66 70 79 87 91 91 91 90 90 91 95 99 103 107 113 119 125 132 138 144 150 154 157 157 153 148 145 143 142 144 147 151 153 155 150 141 130 118 102 86 66 51 34 17 4 354 346 340 335 331 325 320 315 312 309 308 307 307 308 308 308
105 82 79 82 84 89 92 89 94 101 104 98 89 79 71 66 61 58 53 46 43 44 53 58 60 61 62 71 80 85 86 87 87 87 89 95 101 106 112 119 126 133 140 145 150 154 157 159 156 150 144 140 139 139 141 145 149 152 154 149 141 131 121 111 99 82 60 38 17 3 352 342 334 328 322 316 313 310 308 308 308 308 308 309 309 309
111 99 92 95 94 90 84 73 72 83 104 113 109 99 86 75 67 63 58 51 47 47 56 61 61 59 56 61 68 74 77 78 78 79 83 90 100 109 117 125 132 137 143 147 150 151 152 151 147 142 136 134 136 139 142 147 151 154 155 152 145 137 128 120 108 87 59 34 12 357 346 335 327 321 316 311 309 308 308 309 309 309 309 310 310 309
121 120 113 114 117 117 108 82 55 50 75 106 113 113 110 100 89 77 68 57 49 45 55 69 71 68 61 58 61 68 75 76 75 72 73 73 81 94 107 115 123 131 137 140 142 143 142 140 138 136 134 137 141 145 148 151 155 158 160 157 153 145 136 126 106 77 46 22 3 349 338 329 322 316 312 309 308 308 310 310 310 309 309 310 309 309
114 117 116 111 112 116 117 112 87 52 56 81 93 100 111 115 112 103 88 72 55 43 47 70 81 83 77 66 65 73 81 83 84 83 80 74 73 76 81 89 97 109 126 133 136 138 138 139 141 142 145 149 152 154 154 157 160 163 165 163 160 156 144 127 86 50 27 7 352 340 330 324 318 314 311 310 310 311 311 311 310 309 309 309 309 308
104 106 106 102 90 83 89 99 97 87 82 86 78 70 74 100 116 119 115 104 89 67 57 64 77 88 94 87 79 75 78 77 76 76 75 72 73 75 75 78 85 100 125 134 140 142 142 145 150 155 158 160 160 160 159 162 164 167 169 168 167 166 158 132 49 16 5 351 338 330 324 319 315 312 311 311 311 312 311 310 309 308 307 307 307 306
106 105 103 103 99 91 87 83 84 90 109 110 108 103 90 84 104 117 122 122 118 110 94 76 68 69 79 88 87 80 74 73 70 65 61 59 62 66 73 78 93 121 139 138 137 137 138 143 152 158 160 161 163 164 164 166 168 171 171 173 177 182 195 235 318 334 336 329 324 320 316 313 311 310 310 310 310 310 309 308 306 305 304 304 303 303
105 105 102 105 111 120 127 129 133 147 169 170 167 164 161 145 119 105 107 112 114 114 110 98 79 62 51 51 59 73 82 81 77 72 64 54 51 54 64 77 96 146 170 134 116 114 124 129 136 145 152 157 162 166 169 170 171 172 175 180 189 202 223 255 283 304 311 312 312 310 309 307 307 307 307 307 307 306 305 304 303 302 302 302 302 302
116 116 114 121 134 151 160 163 168 176 187 190 179 158 139 131 122 112 105 104 104 104 103 98 90 75 50 33 31 47 83 92 88 82 74 63 56 57 76 114 169 200 192 165 147 135 129 118 112 119 133 146 159 169 177 176 175 175 180 190 202 218 234 253 272 286 295 299 300 301 302 302 302 302 302 303 302 302 300 300 299 300 300 300 301 301
136 140 144 155 165 174 180 181 184 184 182 170 139 116 109 118 124 125 120 119 117 114 105 97 89 78 57 37 25 31 74 96 102 98 95 74 58 59 112 167 192 204 196 183 176 165 141 118 105 98 94 142 167 178 183 181 181 185 192 204 215 227 238 253 264 275 283 288 292 294 296 297 298 298 298 298 298 297 297 296 297 297 297 298 298 299
149 154 160 169 176 182 185 185 183 176 157 136 126 129 135 142 145 140 132 132 131 128 123 115 106 94 73 62 39 38 86 102 105 108 111 96 66 3 208 194 196 200 205 193 185 172 137 112 109 115 148 191 193 189 185 182 187 197 206 216 225 233 242 252 261 269 275 281 285 288 291 292 293 294 295 295 295 294 294 294 294 294 295 295 296 298
156 162 167 172 178 181 180 179 172 158 143 140 142 149 154 154 150 143 135 134 134 135 140 136 133 130 130 136 165 186 156 121 112 110 111 111 116 258 242 212 199 195 202 194 177 148 116 108 115 145 202 218 212 202 192 193 199 208 217 225 233 239 247 254 261 266 271 277 281 284 288 289 290 291 292 292 292 292 292 292 292 292 293 294 295 298
162 167 168 170 173 172 168 169 163 150 141 143 145 144 139 135 134 134 135 136 137 139 141 133 128 129 133 149 167 174 166 136 120 114 109 119 205 267 263 238 210 191 187 173 132 102 97 105 125 170 215 226 220 209 201 204 211 221 229 236 243 248 252 258 262 267 272 276 281 284 287 289 290 290 291 291 291 291 291 290 291 291 292 294 296 298
164 168 166 165 162 161 163 168 166 160 157 156 151 142 129 121 119 122 128 132 134 135 132 121 106 92 95 124 136 138 142 126 115 112 115 137 242 280 286 274 235 173 149 104 81 76 84 88 62 23 10 354 251 220 214 221 230 239 246 251 255 258 261 264 267 271 276 279 283 286 289 290 291 291 291 291 291 290 290 290 290 291 293 295 296 297
158 162 163 156 152 155 168 177 174 169 164 158 151 143 140 135 129 121 119 116 112 108 105 101 93 78 62 64 75 87 98 101 102 108 121 148 238 282 297 301 305 110 87 59 49 48 55 44 22 12 12 12 8 341 267 261 263 265 267 269 269 271 271 273 275 279 282 285 288 290 291 292 293 292 292 292 291 290 290 290 291 292 293 294 295 296
150 156 156 148 151 160 176 178 174 167 160 151 146 143 145 141 137 131 123 110 99 89 82 79 73 69 71 78 73 66 53 87 120 128 129 141 202 283 296 310 14 76 70 44 28 21 23 26 17 6 4 5 1 349 326 303 294 290 287 285 284 283 283 284 286 288 291 293 294 296 296 296 295 295 294 293 292 292 291 292 292 292 293 293 294 294
145 148 140 140 151 163 170 164 162 160 155 152 151 153 154 151 148 143 135 124 113 100 85 74 62 55 60 70 62 41 14 348 171 157 134 134 146 280 293 302 25 66 62 32 12 8 15 18 10 360 357 357 353 343 327 313 303 299 295 294 294 294 295 297 299 300 301 302 302 302 301 300 300 299 297 296 295 294 293 293 292 292 293 293 294 295
124 127 119 116 126 140 145 145 148 150 150 150 150 152 149 147 144 141 136 127 113 100 86 77 67 58 56 60 49 21 353 301 222 174 136 136 147 230 295 314 29 56 42 10 359 2 6 7 2 354 353 354 352 345 330 312 301 299 305 307 310 313 317 316 314 312 311 309 309 308 307 306 305 303 302 300 298 296 295 294 294 294 294 295 296 298
106 109 106 102 101 108 115 123 128 129 126 118 108 99 94 100 104 106 107 103 99 96 93 90 84 76 64 72 53 346 319 296 262 199 133 131 136 201 298 341 38 51 24 358 357 2 360 356 355 356 357 359 1 4 5 357 350 351 356 353 349 344 338 332 327 323 320 318 316 315 314 312 310 307 305 303 300 299 297 297 296 296 297 299 301 303
107 110 111 112 114 117 119 122 122 119 113 107 102 97 94 93 91 89 88 91 96 102 107 107 106 106 112 177 276 290 287 290 281 202 123 120 122 131 309 356 41 52 357 338 351 7 6 355 353 357 1 5 12 21 32 37 35 29 23 17 10 2 354 346 339 335 330 328 325 322 319 316 313 309 306 304 302 300 300 300 301 301 303 305 307 309
118 121 125 126 126 127 127 127 125 124 122 119 117 115 112 106 102 99 99 105 114 122 125 124 129 148 205 229 266 279 284 298 318 38 115 115 112 90 329 1 36 44 350 338 352 6 14 6 353 349 353 358 10 20 31 35 34 31 28 25 20 14 7 360 353 346 340 335 331 326 321 317 313 309 306 305 304 303 304 304 306 307 309 311 313 315
121 123 125 126 128 129 129 129 128 127 126 126 126 126 124 120 117 117 124 135 142 143 142 138 142 155 184 200 256 280 289 314 341 16 76 103 100 84 352 1 23 31 5 348 348 358 12 13 358 344 342 337 350 7 24 27 28 28 27 27 25 22 16 9 1 353 345 339 333 327 321 317 313 310 307 307 307 307 308 309 311 312 314 316 318 319
119 121 123 125 127 129 130 130 130 130 130 131 132 133 132 129 130 137 150 154 153 151 149 146 146 150 158 174 242 280 296 321 337 348 20 85 88 78 348 1 25 37 26 358 347 353 10 12 356 338 330 325 335 356 14 19 22 23 23 24 25 23 18 10 2 354 346 339 333 327 321 317 315 313 311 312 312 313 314 314 315 316 319 322 324 320
110 113 114 117 121 124 125 127 129 131 133 134 135 136 135 133 140 149 157 155 153 152 154 149 145 143 145 154 238 313 317 322 326 339 33 78 83 72 340 9 27 34 41 26 7 360 4 355 340 325 318 324 336 353 3 12 16 17 16 18 19 17 13 7 359 351 344 338 332 327 323 321 319 318 318 318 319 319 320 320 320 320 323 328 326 316
88 90 90 94 99 103 106 111 118 124 127 128 129 128 123 122 135 145 151 151 153 155 155 147 142 140 137 120 84 12 316 300 302 355 78 87 92 96 17 40 29 25 42 60 52 26 352 329 322 317 315 327 336 344 348 2 9 10 6 9 11 9 5 359 353 346 340 336 332 329 327 326 325 325 325 326 326 326 326 326 325 325 327 332 328 318
76 73 67 65 65 65 64 66 80 95 105 106 106 103 97 98 113 131 143 150 154 154 151 147 147 149 146 130 125 144 248 260 247 140 99 99 110 135 128 87 48 14 16 87 102 108 131 309 313 321 332 335 336 338 339 353 2 6 360 4 4 360 355 349 345 340 335 332 331 330 329 330 330 331 332 332 332 332 332 331 329 328 326 331 327 316
84 81 77 69 64 61 60 60 62 65 72 74 76 79 83 89 97 112 130 143 146 144 141 140 142 143 140 132 139 159 206 235 215 173 120 105 106 121 126 110 93 36 344 79 114 130 146 233 300 319 334 334 331 329 329 343 359 11 10 11 360 344 339 338 336 334 330 329 328 328 329 330 332 333 335 336 336 336 335 333 330 328 326 329 322 311
86 84 81 78 74 71 69 68 66 65 64 62 63 65 71 77 82 88 98 112 125 132 136 136 135 131 118 107 110 130 206 244 211 180 141 113 104 113 118 114 112 103 32 44 77 106 127 166 255 299 319 317 319 322 324 333 350 14 26 15 349 323 322 327 329 327 321 321 322 324 326 329 331 333 336 337 337 336 334 331 328 326 324 324 317 310
84 84 82 81 78 76 73 71 71 71 70 67 66 64 64 67 72 75 78 79 90 107 125 134 137 137 132 114 103 100 269 249 200 169 140 116 109 116 121 120 125 126 100 68 66 77 99 140 205 303 321 316 316 319 318 320 329 345 11 346 304 300 305 316 318 315 310 312 312 314 318 322 326 330 334 335 334 332 330 327 324 322 319 317 314 311
81 81 80 82 82 83 80 77 76 75 73 70 67 65 65 65 67 69 71 72 75 81 94 115 129 138 140 135 132 137 164 203 184 162 136 122 117 118 118 133 142 137 114 105 92 88 84 67 50 20 356 331 322 316 311 306 312 318 306 272 262 267 277 290 299 303 302 304 303 303 306 311 317 324 328 328 327 326 325 323 321 318 315 312 309 306
79 78 77 81 85 89 87 86 85 82 79 73 67 63 64 65 64 64 64 67 71 74 77 79 91 109 127 132 134 139 153 173 174 161 138 129 122 118 120 152 157 144 119 116 113 111 108 95 81 75 62 312 307 307 307 309 315 318 307 283 269 263 264 259 257 262 285 295 299 300 302 306 310 315 317 322 322 322 321 320 317 314 310 307 303 300
80 77 71 72 80 88 92 90 89 88 86 79 71 66 65 65 62 59 56 55 60 66 71 69 70 73 81 98 112 124 138 149 152 144 131 124 118 115 121 151 164 154 130 133 136 135 128 128 132 152 182 223 252 273 292 303 314 314 299 283 275 271 271 262 237 221 239 272 284 291 297 302 309 313 313 318 320 321 320 316 312 308 304 301 298 296
80 75 63 57 63 77 88 90 91 92 91 89 84 78 74 72 67 61 56 52 54 59 66 64 65 67 70 80 93 109 123 129 131 129 122 117 113 112 120 134 151 156 141 143 144 141 133 134 138 162 219 228 233 241 257 273 281 280 271 267 266 267 274 270 250 233 239 264 279 289 297 304 311 314 313 317 321 323 319 313 306 301 297 295 293 292
79 73 57 45 44 56 79 90 94 94 91 94 95 93 89 81 74 68 64 60 59 61 66 71 72 72 70 80 94 107 118 126 132 134 127 118 115 116 121 130 144 155 149 138 134 134 135 140 152 171 215 238 242 244 243 245 250 258 269 271 271 272 276 273 266 259 258 270 285 295 303 309 314 314 310 314 317 316 309 302 295 291 289 291 290 289
81 70 56 40 33 37 65 79 87 88 88 92 92 90 86 81 73 66 61 61 60 59 58 65 71 75 72 73 79 90 104 121 133 137 131 128 126 124 126 134 143 149 146 132 128 132 138 150 167 192 222 248 264 265 256 247 257 277 300 299 290 283 287 284 278 271 267 270 286 300 308 313 314 313 310 309 306 297 290 286 284 282 279 275 277 281
88 76 62 42 32 30 37 36 42 59 79 81 75 67 63 67 67 61 50 46 41 36 33 44 52 57 56 53 52 53 61 78 112 135 137 137 132 129 129 135 139 142 142 138 135 140 148 160 180 208 235 253 267 272 270 269 287 302 313 306 296 290 292 291 289 285 293 294 299 308 316 318 320 320 315 309 296 281 270 268 269 271 270 255 243 245
98 91 76 42 18 4 349 348 5 35 56 60 58 53 47 54 64 70 64 48 30 18 13 26 39 46 46 41 36 35 38 34 40 86 128 134 132 129 129 137 138 138 135 134 143 160 174 182 198 222 244 258 271 277 278 280 291 302 308 301 299 299 295 292 293 302 330 321 319 322 325 323 321 318 313 305 292 276 263 254 256 261 266 254 239 234
97 92 62 352 324 314 313 343 11 27 39 49 50 45 33 40 65 84 85 73 53 29 21 32 49 59 58 39 22 11 10 9 12 29 103 135 138 136 134 138 139 138 132 131 144 189 217 215 220 231 242 254 270 281 288 290 293 293 291 295 301 304 302 297 302 325 340 327 324 324 323 318 313 309 304 297 287 273 261 256 259 263 269 267 260 253
100 87 330 312 311 320 346 7 16 22 39 54 54 41 13 19 50 76 87 82 70 52 40 47 58 61 57 41 18 360 347 351 359 13 43 101 138 147 138 138 138 138 131 134 144 176 238 240 241 242 242 256 273 281 286 288 289 290 284 286 288 288 287 300 316 330 331 325 322 320 315 311 309 307 302 294 284 272 262 256 258 262 265 262 260 258
88 47 353 344 354 8 24 18 14 19 36 54 53 38 5 10 40 67 89 91 80 63 53 64 67 64 53 28 3 350 341 343 349 359 9 18 38 88 123 133 136 136 134 144 155 172 217 259 267 268 270 270 271 273 277 281 285 287 287 286 284 283 283 299 312 319 315 315 312 309 304 305 307 307 303 296 287 276 265 261 261 262 263 260 257 255
60 43 23 17 22 29 29 9 9 25 42 49 48 36 11 21 43 67 87 94 92 81 63 70 78 80 76 43 7 359 358 349 345 345 348 354 1 12 48 109 134 143 151 171 187 200 218 243 256 266 277 276 269 264 261 268 276 282 284 287 290 293 297 302 301 299 297 305 303 299 297 300 303 303 300 298 293 285 269 259 254 254 259 258 255 253
68 63 47 42 40 32 4 354 15 41 52 51 49 43 71 83 81 77 76 84 89 89 74 69 76 86 96 95 80 57 41 5 343 335 334 338 342 349 3 28 86 129 149 188 212 225 233 231 228 227 241 262 269 268 262 259 264 272 280 290 298 303 303 299 292 287 286 291 291 292 299 307 306 302 299 298 295 289 278 265 254 251 252 253 253 252
89 87 79 69 63 50 18 16 40 63 72 70 67 79 133 121 104 89 74 72 77 84 79 75 80 87 94 102 108 114 114 100 341 319 320 324 330 340 6 22 28 26 14 317 265 250 243 231 219 208 204 219 243 262 272 269 266 269 280 295 304 304 296 289 285 283 279 273 272 277 287 298 302 303 303 302 299 295 289 280 269 257 250 249 249 250
96 95 90 78 67 59 42 56 83 95 99 100 97 90 85 93 92 89 77 70 73 81 87 94 99 102 103 98 93 87 87 90 73 298 303 309 319 346 26 31 23 9 351 337 325 308 293 266 236 218 205 202 211 234 263 272 281 291 305 309 308 299 282 279 279 277 271 269 268 268 269 275 283 290 299 300 299 297 295 291 283 269 254 246 243 244
94 92 90 80 72 65 71 116 112 108 107 109 108 98 81 71 69 69 72 69 72 78 92 105 112 115 113 106 97 74 28 28 351 317 301 304 348 22 32 26 16 3 346 337 332 332 334 327 307 269 226 210 202 203 229 261 295 325 341 328 308 266 258 270 272 272 274 276 276 274 273 272 274 279 288 293 295 296 297 295 291 283 267 254 249 252
81 71 69 72 71 64 253 111 100 96 96 100 104 104 96 86 76 70 68 68 71 76 87 99 108 114 117 117 124 137 198 178 229 270 281 326 46 45 33 16 6 355 345 337 334 337 345 347 342 328 304 273 222 184 163 172 148 0 345 316 288 254 248 264 272 278 283 285 283 282 282 283 283 284 286 290 294 297 299 298 298 295 291 286 283 282